Robinson, IL

5:38 PM CDT on May 25, 2017 (GMT -0500)
Robinson Municipal

Weather History for KRSV - January, 2014

Change the Weather History Date:

Tuesday, January 14, 2014

  Actual Average (KLWV) Record (KLWV)
Temperature  
Mean Temperature 37 °F -  
Max Temperature 47 °F 34 °F 53 °F (2007)
Min Temperature 27 °F 20 °F -5 °F (1997)
Degree Days  
Heating Degree Days 28    
Moisture  
Dew Point 31 °F    
Average Humidity 85    
Maximum Humidity 100    
Minimum Humidity 62    
Precipitation  
Precipitation 0.01 in - - ()
Sea Level Pressure  
Sea Level Pressure 29.90 in    
Wind  
Wind Speed 8 mph (WSW)    
Max Wind Speed 22 mph    
Max Gust Speed 31 mph    
Visibility 8 miles    
Events Rain    
Averages and records for this station are not official NWS values.
T = Trace of Precipitation, MM = Missing Value Source: NWS Daily Summary

Daily Weather History Graph

Daily Weather History Graph

Search for Another Location

Airport or City:

Trip Planner

Search our weather history database for the weather conditions in past years. The results will help you decide how hot, cold, wet, or windy it might be!

Date:

Astronomy

Jan. 14, 2014 Rise Set
Actual Time 7:08 AM CST 4:51 PM CST
Civil Twilight 6:39 AM CST 5:20 PM CST
Nautical Twilight 6:06 AM CST 5:53 PM CST
Astronomical Twilight 5:34 AM CST 6:25 PM CST
Moon 3:56 PM CST (1/14) 5:42 AM CST (1/14)
Length of Visible Light 10h 41m
Length of Day
9h 43m
Waxing Gibbous, 98% of the Moon is Illuminated
Jan 14
Waxing Gibbous
Jan 15
Full
Jan 23
Last Quarter
Jan 30
New
Feb 6
First Quarter

Hourly Weather History & Observations

Time (CST) Temp. Windchill Dew Point Humidity Pressure Visibility Wind Dir Wind Speed Gust Speed Precip Events Conditions
12:15 AM 34.3 °F 31.4 °F 32.0 °F 91% 29.86 in 10.0 mi NW 3.5 mph - N/A   Clear
12:35 AM 33.3 °F 30.2 °F 32.0 °F 95% 29.86 in 10.0 mi WNW 3.5 mph - N/A   Clear
12:55 AM 32.7 °F 29.6 °F 31.3 °F 94% 29.86 in 10.0 mi West 3.5 mph - N/A   Clear
1:15 AM 32.4 °F 27.9 °F 31.6 °F 97% 29.86 in 7.0 mi West 4.6 mph - N/A   Clear
1:35 AM 31.8 °F 28.5 °F 30.9 °F 96% 29.87 in 7.0 mi West 3.5 mph - N/A   Clear
1:55 AM 31.8 °F 28.5 °F 31.6 °F 99% 29.86 in 7.0 mi SW 3.5 mph - N/A   Clear
2:15 AM 31.3 °F 27.9 °F 30.9 °F 99% 29.87 in 5.0 mi West 3.5 mph - N/A   Clear
2:35 AM 29.8 °F 26.3 °F 29.3 °F 98% 29.87 in 5.0 mi West 3.5 mph - N/A   Clear
2:55 AM 30.6 °F 24.7 °F 30.2 °F 99% 29.87 in 5.0 mi West 5.8 mph - N/A   Clear
3:15 AM 30.7 °F 26.0 °F 30.4 °F 99% 29.86 in 7.0 mi SSW 4.6 mph - N/A   Clear
3:35 AM 29.3 °F 25.6 °F 28.8 °F 98% 29.86 in 7.0 mi SSW 3.5 mph - N/A   Clear
3:55 AM 29.8 °F 26.3 °F 29.8 °F 100% 29.86 in 5.0 mi SW 3.5 mph - N/A   Clear
4:15 AM 29.1 °F 24.1 °F 28.9 °F 99% 29.86 in 4.0 mi SW 4.6 mph - N/A   Clear
4:35 AM 29.7 °F 26.1 °F 29.7 °F 100% 29.86 in 5.0 mi SSW 3.5 mph - N/A   Clear
4:55 AM 28.4 °F 24.6 °F 28.2 °F 99% 29.87 in 4.0 mi SSW 3.5 mph - N/A   Clear
5:15 AM 27.5 °F 23.6 °F 27.3 °F 99% 29.87 in 4.0 mi South 3.5 mph - N/A   Clear
5:35 AM 27.3 °F 23.4 °F 27.1 °F 99% 29.86 in 4.0 mi SSE 3.5 mph - N/A   Clear
5:55 AM 27.5 °F 21.1 °F 27.5 °F 100% 29.86 in 4.0 mi SSE 5.8 mph - N/A   Clear
6:15 AM 28.0 °F 22.8 °F 28.0 °F 100% 29.86 in 5.0 mi South 4.6 mph - N/A   Clear
6:35 AM 29.3 °F 23.2 °F 29.3 °F 100% 29.86 in 5.0 mi South 5.8 mph - N/A   Clear
6:55 AM 30.6 °F 25.8 °F 30.6 °F 100% 29.85 in 5.0 mi South 4.6 mph - N/A   Clear
7:15 AM 30.6 °F 23.8 °F 30.4 °F 99% 29.85 in 4.0 mi SSE 6.9 mph - N/A   Clear
7:35 AM 30.0 °F 21.7 °F 29.7 °F 99% 29.83 in 4.0 mi SE 9.2 mph - N/A   Clear
7:55 AM 31.8 °F 25.4 °F 31.6 °F 99% 29.83 in 5.0 mi SSE 6.9 mph - N/A   Clear
8:15 AM 32.5 °F 28.1 °F 32.2 °F 99% 29.84 in 5.0 mi South 4.6 mph - N/A   Clear
8:35 AM 34.2 °F 26.2 °F 33.8 °F 99% 29.84 in 5.0 mi South 10.4 mph - N/A   Clear
8:55 AM 35.2 °F 27.1 °F 34.0 °F 95% 29.84 in 7.0 mi South 11.5 mph 17.3 mph N/A   Clear
9:15 AM 36.9 °F 29.1 °F 33.8 °F 89% 29.85 in 10.0 mi South 11.5 mph 18.4 mph N/A   Clear
9:35 AM 37.8 °F 29.8 °F 34.3 °F 87% 29.85 in 10.0 mi South 12.7 mph - N/A   Clear
9:55 AM 39.0 °F 30.6 °F 35.1 °F 86% 29.84 in 10.0 mi South 15.0 mph 18.4 mph N/A   Clear
10:15 AM 41.0 °F 33.5 °F 36.7 °F 85% 29.83 in 10.0 mi South 13.8 mph 18.4 mph N/A   Scattered Clouds
10:35 AM 42.1 °F 34.5 °F 37.0 °F 82% 29.82 in 10.0 mi South 15.0 mph - N/A   Mostly Cloudy
10:55 AM 43.0 °F 35.4 °F 36.5 °F 78% 29.81 in 10.0 mi South 16.1 mph - N/A   Mostly Cloudy
11:15 AM 45.0 °F 38.9 °F 37.6 °F 75% 29.79 in 10.0 mi SSW 12.7 mph - N/A   Mostly Cloudy
11:35 AM 46.4 °F 40.4 °F 38.7 °F 74% 29.78 in 10.0 mi SSW 13.8 mph - N/A   Mostly Cloudy
11:55 AM 47.7 °F - 36.5 °F 65% 29.79 in 10.0 mi SW 19.6 mph 24.2 mph N/A   Overcast
12:15 PM 47.5 °F - 36.1 °F 65% 29.79 in 10.0 mi SW 17.3 mph 27.6 mph N/A   Overcast
12:35 PM 46.6 °F - 35.1 °F 64% 29.79 in 10.0 mi West 21.9 mph 27.6 mph N/A   Overcast
12:55 PM 46.8 °F - 36.0 °F 66% 29.80 in 10.0 mi West 21.9 mph 31.1 mph N/A   Overcast
1:15 PM 43.0 °F 34.5 °F 36.0 °F 76% 29.82 in 7.0 mi West 19.6 mph 27.6 mph N/A Rain Light Rain
1:35 PM 40.1 °F 31.3 °F 37.2 °F 89% 29.83 in 3.0 mi WNW 17.3 mph - 0.01 in Rain Light Rain
1:55 PM 40.1 °F 32.7 °F 37.9 °F 92% 29.84 in 10.0 mi WNW 12.7 mph 17.3 mph 0.01 in   Overcast
2:15 PM 40.3 °F 33.9 °F 37.9 °F 91% 29.84 in 10.0 mi WNW 10.4 mph - N/A   Overcast
2:35 PM 40.6 °F 34.8 °F 38.3 °F 91% 29.85 in 10.0 mi WNW 9.2 mph - N/A   Overcast
2:55 PM 41.0 °F 34.7 °F 37.4 °F 87% 29.86 in 10.0 mi WNW 10.4 mph 16.1 mph N/A   Overcast
3:15 PM 41.2 °F 34.5 °F 37.6 °F 87% 29.87 in 10.0 mi WNW 11.5 mph - N/A   Mostly Cloudy
3:35 PM 41.4 °F 35.2 °F 36.3 °F 82% 29.88 in 10.0 mi West 10.4 mph - N/A   Mostly Cloudy
3:55 PM 41.4 °F 36.2 °F 36.5 °F 83% 29.90 in 10.0 mi West 8.1 mph - N/A   Mostly Cloudy
4:15 PM 41.4 °F 35.7 °F 36.3 °F 82% 29.91 in 10.0 mi West 9.2 mph - N/A   Overcast
4:35 PM 41.5 °F 34.6 °F 35.4 °F 79% 29.92 in 10.0 mi West 12.7 mph 20.7 mph N/A   Overcast
4:55 PM 41.2 °F 35.0 °F 33.6 °F 74% 29.93 in 10.0 mi West 10.4 mph - N/A   Overcast
5:15 PM 40.1 °F 33.2 °F 32.9 °F 75% 29.94 in 10.0 mi WNW 11.5 mph - N/A   Mostly Cloudy
5:35 PM 39.4 °F 30.4 °F 31.6 °F 74% 29.96 in 10.0 mi NNW 17.3 mph 23.0 mph N/A   Mostly Cloudy
5:55 PM 38.3 °F 30.9 °F 30.9 °F 75% 29.97 in 10.0 mi NW 11.5 mph - N/A   Overcast
6:15 PM 37.2 °F 27.3 °F 29.7 °F 74% 29.99 in 10.0 mi NW 18.4 mph 21.9 mph N/A   Scattered Clouds
6:35 PM 36.5 °F 27.4 °F 29.1 °F 75% 30.00 in 10.0 mi NW 15.0 mph 20.7 mph N/A   Clear
6:55 PM 35.6 °F 29.2 °F 29.3 °F 78% 30.01 in 10.0 mi NW 8.1 mph - N/A   Scattered Clouds
7:15 PM 35.4 °F 27.3 °F 28.2 °F 75% 30.01 in 10.0 mi WNW 11.5 mph 17.3 mph N/A   Scattered Clouds
7:35 PM 34.9 °F 29.0 °F 27.3 °F 74% 30.01 in 10.0 mi NW 6.9 mph 17.3 mph N/A   Scattered Clouds
7:55 PM 34.2 °F 30.0 °F 27.3 °F 76% 30.01 in 10.0 mi WNW 4.6 mph - N/A   Scattered Clouds
8:15 PM 32.9 °F 27.5 °F 27.0 °F 79% 30.01 in 10.0 mi WNW 5.8 mph - N/A   Scattered Clouds
8:35 PM 32.9 °F 27.5 °F 26.6 °F 78% 30.01 in 10.0 mi WNW 5.8 mph - N/A   Clear
8:55 PM 32.5 °F 26.2 °F 26.6 °F 79% 30.02 in 10.0 mi WNW 6.9 mph - N/A   Clear
9:15 PM 32.4 °F 26.0 °F 26.4 °F 79% 30.02 in 10.0 mi WNW 6.9 mph - N/A   Clear
9:35 PM 32.4 °F 26.0 °F 26.6 °F 79% 30.02 in 10.0 mi WNW 6.9 mph - N/A   Scattered Clouds
9:55 PM 33.3 °F 25.1 °F 27.5 °F 79% 30.02 in 10.0 mi WNW 10.4 mph - N/A   Mostly Cloudy
10:15 PM 32.9 °F 25.9 °F 27.7 °F 81% 30.03 in 10.0 mi NW 8.1 mph - N/A   Overcast
10:35 PM 32.4 °F 20.3 °F 22.1 °F 66% 30.03 in 10.0 mi WNW 20.7 mph 25.3 mph N/A   Mostly Cloudy
10:55 PM 32.0 °F 20.1 °F 21.2 °F 64% 30.03 in 10.0 mi WNW 19.6 mph - N/A   Scattered Clouds
11:15 PM 32.0 °F 22.5 °F 20.5 °F 63% 30.02 in 10.0 mi WNW 12.7 mph 16.1 mph N/A   Mostly Cloudy
11:35 PM 32.0 °F 23.6 °F 21.9 °F 66% 30.02 in 10.0 mi West 10.4 mph - N/A   Overcast
11:55 PM 32.0 °F 23.0 °F 20.1 °F 62% 30.02 in 10.0 mi West 11.5 mph 19.6 mph N/A   Overcast